www.pogodaiklimat.ru

Погода и климат >> Архив погоды >> Россия >> Астраханская область >> Досанг


ПОГОДА в Досанге

  • Прогноз погоды в Досанге
  • Монитор погоды в Досанге

АРХИВ ПОГОДЫ в Досанге

Время (UTC), дата Ветер
(напр.,м/с)
 
Видим.   Явления Облачность Т
(С)
Тd
(С)
f
(%)
Тe
(С)
Тes
(С)
Комфортность P
(гПа)
Po
(гПа)
Тmin
(С)
Tmax
(С)
R
(мм)
R24
(мм)
S
(см)
21 8.09 СВ 1 10 км ясно +12.4 -0.7 40 +13 +13 1025.4 1027.6
00 9.09 СВ 2 10 км ясно +10.8 +0.1 48 +10 +10 1025.4 1027.6
03 9.09 С 2 20 км ясно +10.1 +0.4 51 +9 +9 1026.3 1028.5 +8.5
06 9.09 СВ 2 20 км ясно +22.0 +1.4 26 +22 +28 комфорт 1026.9 1029.0
09 9.09 СВ 3 20 км ясно +24.5 +0.3 20 +23 +33 комфорт 1025.8 1028.0
12 9.09 В 3
{11}
20 км ясно +25.8 -0.5 18 +24 +29 комфорт 1024.6 1026.7
15 9.09 В 3 20 км ясно +23.5 -0.4 21 +22 +22 комфорт 1024.5 1026.6 +26.2
18 9.09 ЮВ 2 10 км ясно +15.9 +5.8 51 +16 +16 1025.8 1028.0
21 9.09 штиль 0 10 км ясно +11.2 +4.1 62 +11 +11 1025.8 1028.0
00 10.09 СВ 2 10 км ясно +9.6 +3.4 65 +8 +8 1025.6 1027.9
03 10.09 СВ 2 20 км ясно +10.2 +3.6 64 +9 +9 1026.0 1028.2 +9.0
06 10.09 СВ 5 20 км ясно +23.6 +1.3 23 +23 +26 комфорт 1026.5 1028.6
09 10.09 В 4
{11}
20 км ясно +25.7 +0.1 19 +24 +32 комфорт 1025.9 1028.0
12 10.09 СВ 4
{10}
20 км 1/0
[Ci sp]
+27.1 -0.4 17 +25 +29 комфорт 1024.7 1026.8
15 10.09 Ю 2 20 км 1/0
[Ci sp]
+22.6 +5.1 32 +23 +23 комфорт 1025.2 1027.4 +27.3
18 10.09 ЮВ 1 10 км ясно +15.3 +5.3 51 +16 +16 1026.1 1028.2
21 10.09 С 2 10 км 3/0
[Ci fib]
+12.1 +4.0 58 +11 +11 1026.1 1028.3
00 11.09 С 2 10 км ясно +11.2 +3.4 59 +10 +10 1026.2 1028.4
03 11.09 СВ 2 20 км 3/0
[Ci sp]
+10.4 +3.1 61 +9 +9 1027.0 1029.3 +9.5
06 11.09 В 3 20 км 3/0
[Cc]
+23.9 +3.0 26 +23 +28 комфорт 1027.7 1029.8
09 11.09 В 4 20 км 8/5 600 м
[Cu hum Cc]
+27.5 +1.7 19 +26 +29 жарко 1027.0 1029.1
12 11.09 СВ 3 20 км 8/8 600 м
[Sc diur, vesp]
+27.9 +1.2 18 +26 +27 жарко 1025.9 1028.0
15 11.09 В 3
{11}
20 км 9/9 600 м
[Cb cap]
+25.2 +3.7 25 +24 +24 комфорт 1026.2 1028.3 +28.7
18 11.09 Ю 2 10 км 10/10 600 м
[Cb cap]
+20.1 +8.9 48 +22 +22 комфорт 1027.1 1029.3
21 11.09 штиль 0 10 км 1/1 600 м
[Sc diur, vesp]
+16.8 +9.4 62 +17 +17 1026.7 1028.9
00 12.09 СВ 1 10 км 8/8 600 м
[Sc]
+13.9 +7.4 65 +14 +14 1026.4 1028.6
03 12.09 штиль 0 4000 м дымка 4/4 600 м
[Sc diur, vesp]
+11.1 +7.8 80 +11 +11 1027.1 1029.3 +10.5
06 12.09 штиль 0 20 км 3/0
[Ci fib]
+23.0 +7.9 38 +24 +32 комфорт 1027.4 1029.6
09 12.09 СВ 3 20 км 6/4 600 м
[Cu med, cong Ci fib]
+25.5 +3.8 25 +25 +30 комфорт 1026.2 1028.3
12 12.09 В 4 20 км 9/5 600 м
[Cu med, cong Ci]
+27.2 +2.1 20 +26 +27 жарко 1025.0 1027.1
15 12.09 Ю 2 20 км 8/1 600 м
[Cu med, cong Ci sp]
+23.5 +4.6 29 +23 +23 комфорт 1025.2 1027.3 +27.5
18 12.09 ЮВ 2 10 км 6/0
[Ci fib]
+18.9 +9.1 53 +20 +20 1026.1 1028.3
21 12.09 штиль 0 10 км 1/0
[Ci fib]
+13.9 +9.5 75 +14 +14 1025.8 1028.0
00 13.09 штиль 0 10 км 10/10 600 м
[Sc]
+11.9 +8.5 80 +11 +11 1025.6 1027.8
03 13.09 штиль 0 20 км 10/1 600 м
[Sc diur, vesp Ac cast Cs]
+10.8 +7.3 79 +10 +10 1026.4 1028.6 +9.5
06 13.09 ЮЗ 1 20 км 8/0
[Cs]
+21.7 +10.3 48 +23 +30 комфорт 1026.6 1028.7
09 13.09 СВ 2 20 км 5/4 600 м
[Sc diur, vesp Ac cast]
+26.3 +3.1 22 +25 +31 комфорт 1025.1 1027.2
12 13.09 СВ 4 20 км 4/4 600 м
[Sc diur, vesp]
+26.4 +0.2 18 +25 +27 комфорт 1023.4 1025.5
15 13.09 СВ 2 20 км 3/3 600 м
[Sc diur, vesp]
+23.1 -1.2 20 +22 +22 комфорт 1023.2 1025.3 +27.7
18 13.09 В 1 10 км ясно +15.8 -0.9 32 +17 +17 1023.7 1025.9
21 13.09 штиль 0 10 км ясно +10.9 +1.0 50 +11 +11 1023.1 1025.3
00 14.09 штиль 0 10 км ясно +9.1 +1.1 57 +9 +9 1022.7 1024.9
03 14.09 штиль 0 20 км ясно +7.8 -0.2 57 +7 +8 1022.9 1025.1 +6.6
06 14.09 ЮВ 1 20 км 3/0
[Ci sp]
+23.7 +5.0 30 +24 +30 комфорт 1023.0 1025.1
09 14.09 Ю 3 20 км 4/0
[Ci fib]
+26.5 +1.4 20 +25 +33 комфорт 1022.2 1024.3
12 14.09 Ю 3 20 км 10/0
[Cs]
+25.6 +0.8 20 +24 +27 комфорт 1020.9 1023.0
15 14.09 Ю 3 20 км 10/0
[Cs]
+21.8 +0.8 25 +21 +21 комфорт 1020.9 1022.4 +26.8
18 14.09 Ю 2 10 км 8/0
[Ci fib]
+18.0 +4.9 42 +19 +19 1020.4 1022.5
21 14.09 Ю 2 10 км ясно +14.4 +8.0 65 +14 +14 1019.9 1022.1
00 15.09 штиль 0 10 км ясно +11.9 +9.2 84 +11 +11 1019.3 1021.5
03 15.09 штиль 0 20 км 4/0
[Ci fib]
+7.4 +5.3 87 +7 +7 1019.5 1021.7 +7.2
06 15.09 Ю 3 20 км 3/0
[Ci fib]
+20.7 +13.1 62 +23 +28 комфорт 1020.1 1022.3
09 15.09 Ю 3 20 км 8/3 600 м
[Cu hum Ci fib]
+25.3 +5.3 28 +25 +30 комфорт 1018.5 1020.6
12 15.09 ЮЗ 2 20 км 10/4 600 м
[Cu hum Cs]
+26.4 +3.1 22 +25 +27 комфорт 1016.7 1018.8
15 15.09 Ю 1 20 км 10/6 300 м
[Sc diur, vesp Ci fib]
+23.1 +5.6 32 +23 +23 комфорт 1016.0 1018.1 +26.7
18 15.09 Ю 2 10 км ясно +19.3 +13.6 70 +21 +21 комфорт 1017.0 1019.1

 

Местоположение метеостанции Досанг (Астраханская область, Россия): широта 46.92 долгота 47.93 высота над уровнем моря -19 м.

В архиве по умолчанию представлена погода в Досанге за последнюю неделю. Архивные данные за месяц целиком и за предыдущие месяцы, начиная с января 2011 года, Вы можете получить, выбрав интересующий диапазон дат из раскрывающегося списка и нажав кнопку "Ввод!".


*Определитесь, кто Вы:
робот инопланетянин человек

Внимание! Время в таблицах - всемирное. Для получения местного времени необходимо прибавить поправку, которая равна 4 ч.

Смотрите также архив погоды в соседних городах и на ближайших метеорологических станциях:

Погода в Астрахани (Астраханская область, Россия) (71 км)
Погода в Харабали (Астраханская область, Россия) (74 км)
Погода в Зеленге (Астраханская область, Россия) (98 км)
Погода в Ганюшкино (Атырауская область, Казахстан) (108 км)
Погода в Юсте (Калмыкия, Россия) (124 км)
Погода в Жанауштогане (Атырауская область, Казахстан) (127 км)
Погода в Лимане (Астраханская область, Россия) (136 км)
Погода в Утте (Калмыкия, Россия) (158 км)
Погода в Исатай (Атырауская область, Казахстан) (163 км)
Погода в Верхнем Баскунчаке (Астраханская область, Россия) (170 км)

Пояснения к столбцам:

Ветер - указаны скорость ветра в м/с - средняя за 10 мин, порывы в срок и между сроками (в фигурных скобках) и направление, откуда дует ветер: С - северный, СВ - северо-восточный, В - восточный, ЮВ - юго-восточный, Ю - южный, ЮЗ - юго-западный, З - западный, СЗ - северо-западный.
Видимость - горизонтальная дальность видимости в метрах или километрах. При видимости от 1 до 10 км при отсутствии осадков обычно наблюдается дымка, при ухудшении видимости до 1 км и менее - туман. В сухую погоду видимость может ухудшаться дымом, пылью или мглою.
Явления - указаны атмосферные явления, наблюдавшиеся в срок или в последний час перед сроком; фигурными скобками обозначены явления, наблюдавшиеся между сроками (за 1-3 часа до срока); квадратными скобками обозначены град или гололедные отложения с указанием их диаметра в мм.
Облачность - указаны через наклонную черту общая и нижняя облачность в баллах и высота нижней границы облаков в метрах; квадратными скобками обозначены формы облаков: Ci - перистые, Cs - перисто-слоистые, Cc - перисто-кучевые, Ac - высококучевые, As - высокослоистые, Sc - слоисто-кучевые, Ns - слоисто-дождевые, Cu - кучевые, Cb - кучево-дождевые. Подробнее классификацию облаков см. в Атласе облаков (PDF).
T - Температура воздуха - температура, измеренная на высоте 2 м над землей.
Td - Температура точки росы - температура, при понижении до которой содержащийся в воздухе водяной пар достигнет насыщения.
f - Относительная влажность воздуха - влажноcть воздуха, измеренная на высоте 2 м над землей.
Te - Эффективная температура - температура, которую ощущает одетый по сезону человек в тени. Характеристика душности погоды. При расчете учитывается влияние влажности воздуха и скорости ветра на теплоощущения человека.
Tes - Эффективная температура на солнце - температура, которую ощущает человек, с поправкой на солнечный нагрев. Характеристика знойности погоды. Зависит от высоты солнца над горизонтом, облачности и скорости ветра. Ночью, в пасмурную погоду, а также при ветре 12 м/с и более поправка равна нулю.
P - Атмосферное давление - приведенное к уровню моря атмосферное давление.
Po - Атмосферное давление - измеренное на уровне метеостанции атмосферное давление.
Tmin - Минимальная температура - минимум температуры воздуха на высоте 2 м над землей.
Tmax - Максимальная температура - максимум температуры воздуха на высоте 2 м над землей.
R - Количество осадков - Количество выпавших осадков за период времени, мм. При наведении курсора мыши на число - период времени, за который выпало указанное количество осадков.
R24 - Количество осадков - Количество выпавших осадков за 24 часа, мм.
S - Снежный покров - Высота снежного покрова, см. При наведении курсора мыши на число - состояние снежного покрова и степень покрытия местности в баллах.